Powrót do katalogu

STARLINK-3714

AktywnyŁącznośćVLEO
NORAD 52094·PAYLOAD·🇺🇸 United States

Wystrzelony Mar 19, 2022 z Cape Canaveral Space Force Station

Loading…

Następne Przeloty (najbliższe 24 godziny)

TLE

ŚwieżeSource: CelesTrak SupGP

Epoka: Sep 14, 2026, 21:23 UTC

1 52094C 22029G   26257.89145833 -.00003505  00000+0 -10356-3 0  2577
2 52094  53.1568 307.5913 0001204  90.2225 253.8219 15.34385606    17

Śledź STARLINK-3714 w czasie rzeczywistym z AllMySat

Download on the App Store